GFSCGP_prec_precacc12_099.txt.gz
Total_Precipitation_Accumulation
0.00 0.00 0.00 0.00 0.00 0.00 0.00 0.00 0.00 0.00 0.00 0.00 0.00 0.00 0.00 0.00 0.00 0.00 0.00 0.00 0.00 0.00 0.00 0.00 0.00 0.00 0.00 0.00 0.00 0.00 0.00 0.00 0.00 0.00 0.00 0.00 0.00 0.00 0.00 0.00 0.02 0.22 0.31 0.24
0.00 0.00 0.00 0.00 0.00 0.00 0.00 0.00 0.00 0.00 0.00 0.00 0.00 0.00 0.00 0.00 0.00 0.00 0.00 0.00 0.00 0.00 0.00 0.00 0.00 0.00 0.00 0.00 0.00 0.00 0.00 0.00 0.00 0.00 0.00 0.00 0.00 0.00 0.00 0.00 0.00 0.03 0.25 0.42
0.00 0.00 0.00 0.00 0.00 0.00 0.00 0.00 0.00 0.00 0.00 0.01 0.01 0.00 0.00 0.00 0.00 0.00 0.00 0.00 0.00 0.00 0.00 0.00 0.00 0.00 0.00 0.00 0.00 0.00 0.00 0.00 0.00 0.00 0.00 0.00 0.00 0.00 0.00 0.00 0.01 0.02 0.06 0.28
0.00 0.00 0.00 0.00 0.00 0.00 0.00 0.00 0.00 0.01 0.01 0.02 0.00 0.00 0.00 0.00 0.00 0.00 0.00 0.00 0.00 0.00 0.00 0.00 0.00 0.00 0.00 0.00 0.00 0.00 0.00 0.00 0.00 0.00 0.00 0.00 0.00 0.00 0.00 0.00 0.01 0.02 0.08 0.14
0.00 0.00 0.00 0.00 0.00 0.00 0.00 0.00 0.01 0.02 0.01 0.00 0.00 0.03 0.00 0.00 0.00 0.00 0.00 0.00 0.00 0.00 0.00 0.00 0.00 0.00 0.00 0.00 0.00 0.00 0.00 0.00 0.00 0.00 0.00 0.00 0.00 0.00 0.00 0.00 0.00 0.01 0.02 0.09
0.00 0.00 0.00 0.00 0.00 0.00 0.00 0.01 0.02 0.03 0.05 0.05 0.00 0.02 0.01 0.00 0.00 0.00 0.00 0.00 0.00 0.00 0.00 0.00 0.00 0.00 0.00 0.00 0.00 0.00 0.00 0.00 0.00 0.00 0.00 0.00 0.00 0.00 0.00 0.00 0.00 0.00 0.01 0.04
0.00 0.00 0.00 0.00 0.00 0.00 0.04 0.10 0.15 0.17 0.15 0.05 0.00 0.00 0.00 0.00 0.00 0.00 0.00 0.00 0.00 0.00 0.00 0.00 0.00 0.00 0.00 0.00 0.00 0.00 0.00 0.00 0.00 0.00 0.00 0.00 0.00 0.00 0.00 0.00 0.00 0.00 0.01 0.02
0.00 0.00 0.00 0.00 0.00 0.00 0.05 0.15 0.14 0.06 0.03 0.01 0.00 0.00 0.00 0.00 0.00 0.00 0.00 0.00 0.00 0.00 0.00 0.00 0.00 0.00 0.00 0.00 0.00 0.00 0.00 0.00 0.00 0.00 0.00 0.00 0.00 0.00 0.00 0.00 0.00 0.00 0.00 0.00
0.00 0.00 0.00 0.00 0.00 0.00 0.05 0.12 0.09 0.27 0.10 0.06 0.00 0.00 0.00 0.00 0.00 0.00 0.00 0.00 0.00 0.00 0.00 0.00 0.00 0.00 0.00 0.00 0.00 0.00 0.00 0.00 0.00 0.00 0.00 0.00 0.00 0.00 0.00 0.00 0.00 0.00 0.00 0.00
0.00 0.00 0.00 0.00 0.00 0.00 0.03 0.15 0.20 0.27 0.15 0.06 0.00 0.01 0.01 0.00 0.00 0.00 0.00 0.00 0.00 0.00 0.00 0.00 0.00 0.00 0.00 0.00 0.00 0.00 0.00 0.00 0.00 0.00 0.00 0.00 0.00 0.00 0.00 0.00 0.00 0.00 0.00 0.00
0.00 0.00 0.00 0.00 0.00 0.01 0.03 0.14 0.18 0.19 0.15 0.13 0.05 0.09 0.14 0.03 0.02 0.00 0.00 0.00 0.00 0.00 0.00 0.00 0.00 0.00 0.00 0.00 0.00 0.00 0.01 0.00 0.00 0.00 0.00 0.00 0.00 0.00 0.00 0.00 0.00 0.00 0.00 0.00
0.00 0.00 0.00 0.00 0.00 0.00 0.01 0.04 0.16 0.31 0.13 0.09 0.10 0.05 0.17 0.07 0.02 0.01 0.00 0.00 0.01 0.02 0.03 0.00 0.00 0.00 0.00 0.00 0.00 0.01 0.01 0.01 0.02 0.03 0.03 0.00 0.00 0.00 0.00 0.00 0.00 0.00 0.00 0.00
0.00 0.00 0.01 0.02 0.03 0.04 0.04 0.07 0.16 0.25 0.25 0.17 0.12 0.04 0.23 0.35 0.14 0.03 0.00 0.00 0.02 0.07 0.09 0.03 0.00 0.00 0.00 0.00 0.01 0.03 0.05 0.06 0.05 0.06 0.01 0.00 0.00 0.00 0.00 0.00 0.00 0.00 0.00 0.00
0.00 0.00 0.01 0.03 0.05 0.13 0.16 0.15 0.13 0.25 0.29 0.09 0.06 0.01 0.07 0.52 0.51 0.28 0.08 0.06 0.08 0.13 0.17 0.11 0.04 0.09 0.11 0.13 0.12 0.11 0.11 0.09 0.08 0.09 0.10 0.03 0.01 0.00 0.00 0.00 0.00 0.00 0.00 0.00
0.00 0.00 0.00 0.00 0.00 0.00 0.02 0.08 0.14 0.22 0.16 0.19 0.03 0.02 0.01 0.13 0.57 0.62 0.30 0.20 0.26 0.27 0.13 0.12 0.15 0.17 0.18 0.22 0.25 0.27 0.23 0.25 0.22 0.21 0.12 0.08 0.03 0.01 0.00 0.00 0.00 0.00 0.00 0.00
0.00 0.00 0.00 0.00 0.00 0.01 0.00 0.01 0.03 0.06 0.16 0.17 0.07 0.07 0.04 0.07 0.26 0.60 0.39 0.37 0.29 0.13 0.02 0.01 0.02 0.04 0.07 0.08 0.09 0.09 0.07 0.10 0.10 0.07 0.13 0.16 0.12 0.09 0.05 0.04 0.02 0.01 0.00 0.00
0.00 0.00 0.00 0.00 0.00 0.00 0.00 0.00 0.00 0.01 0.02 0.10 0.07 0.06 0.02 0.13 0.22 0.30 0.36 0.40 0.33 0.31 0.11 0.02 0.00 0.00 0.01 0.02 0.06 0.06 0.05 0.04 0.08 0.15 0.18 0.15 0.15 0.15 0.13 0.13 0.08 0.08 0.07 0.03
0.00 0.00 0.00 0.00 0.00 0.00 0.00 0.00 0.00 0.08 0.15 0.05 0.05 0.04 0.05 0.20 0.18 0.14 0.25 0.52 0.42 0.34 0.45 0.26 0.08 0.02 0.00 0.01 0.05 0.14 0.16 0.11 0.09 0.14 0.17 0.15 0.08 0.09 0.11 0.12 0.11 0.13 0.11 0.08
0.00 0.00 0.00 0.00 0.00 0.00 0.00 0.00 0.00 0.03 0.04 0.03 0.11 0.22 0.22 0.30 0.42 0.46 0.63 0.64 0.63 0.43 0.30 0.32 0.21 0.11 0.02 0.01 0.01 0.02 0.10 0.07 0.08 0.07 0.06 0.07 0.07 0.09 0.11 0.10 0.09 0.10 0.09 0.12
0.00 0.00 0.00 0.00 0.01 0.00 0.00 0.00 0.00 0.00 0.03 0.01 0.10 0.41 0.42 0.36 0.31 0.33 0.46 0.77 0.56 0.31 0.18 0.13 0.10 0.07 0.03 0.01 0.00 0.00 0.00 0.00 0.00 0.00 0.01 0.02 0.03 0.05 0.08 0.10 0.13 0.13 0.09 0.10
0.01 0.00 0.00 0.00 0.03 0.01 0.00 0.00 0.00 0.01 0.01 0.00 0.02 0.19 0.58 0.69 0.78 0.69 0.57 0.55 0.30 0.21 0.09 0.02 0.01 0.01 0.00 0.01 0.01 0.00 0.00 0.00 0.00 0.00 0.00 0.00 0.00 0.01 0.02 0.06 0.08 0.09 0.11 0.14
0.05 0.03 0.01 0.01 0.04 0.01 0.00 0.00 0.01 0.01 0.00 0.01 0.01 0.03 0.11 0.32 0.31 0.25 0.39 0.36 0.19 0.03 0.00 0.00 0.00 0.00 0.00 0.00 0.00 0.00 0.00 0.00 0.00 0.00 0.00 0.00 0.00 0.00 0.00 0.02 0.03 0.05 0.09 0.11
0.17 0.06 0.04 0.02 0.04 0.07 0.03 0.01 0.02 0.01 0.02 0.03 0.04 0.09 0.16 0.21 0.23 0.29 0.16 0.04 0.00 0.00 0.00 0.00 0.00 0.00 0.00 0.00 0.00 0.00 0.00 0.00 0.00 0.00 0.00 0.00 0.00 0.00 0.00 0.00 0.02 0.03 0.06 0.09
0.38 0.42 0.26 0.26 0.36 0.15 0.08 0.09 0.06 0.06 0.16 0.17 0.10 0.05 0.07 0.06 0.06 0.07 0.04 0.00 0.00 0.00 0.00 0.00 0.00 0.00 0.00 0.00 0.00 0.00 0.00 0.00 0.00 0.00 0.00 0.00 0.00 0.00 0.00 0.00 0.00 0.01 0.03 0.06
0.17 0.43 0.63 0.64 0.44 0.28 0.19 0.24 0.34 0.31 0.14 0.14 0.16 0.13 0.09 0.07 0.06 0.06 0.04 0.03 0.00 0.00 0.00 0.00 0.00 0.00 0.00 0.00 0.00 0.00 0.00 0.00 0.00 0.00 0.00 0.00 0.00 0.00 0.00 0.01 0.02 0.02 0.05 0.07
0.11 0.24 0.52 0.77 0.68 0.55 0.46 0.34 0.29 0.26 0.23 0.12 0.05 0.02 0.00 0.00 0.00 0.00 0.00 0.00 0.00 0.00 0.00 0.00 0.00 0.00 0.00 0.00 0.00 0.00 0.00 0.00 0.00 0.00 0.00 0.00 0.00 0.00 0.00 0.00 0.01 0.05 0.05 0.04

GFSCGP_prec_precacc12_102.txt.gz
Total_Precipitation_Accumulation
0.00 0.00 0.00 0.00 0.00 0.00 0.00 0.00 0.00 0.00 0.00 0.00 0.00 0.00 0.00 0.00 0.00 0.00 0.00 0.00 0.00 0.00 0.00 0.00 0.00 0.00 0.00 0.00 0.00 0.00 0.00 0.00 0.00 0.00 0.00 0.00 0.00 0.00 0.00 0.00 0.03 0.20 0.24 0.17
0.00 0.00 0.00 0.00 0.00 0.00 0.00 0.00 0.00 0.00 0.00 0.00 0.00 0.00 0.00 0.00 0.00 0.00 0.00 0.00 0.00 0.00 0.00 0.00 0.00 0.00 0.00 0.00 0.00 0.00 0.00 0.00 0.00 0.00 0.00 0.00 0.00 0.00 0.00 0.00 0.00 0.04 0.25 0.39
0.00 0.00 0.00 0.00 0.00 0.00 0.00 0.00 0.00 0.00 0.00 0.00 0.00 0.00 0.00 0.00 0.00 0.00 0.00 0.00 0.00 0.00 0.00 0.00 0.00 0.00 0.00 0.00 0.00 0.00 0.00 0.00 0.00 0.00 0.00 0.00 0.00 0.00 0.00 0.00 0.00 0.00 0.04 0.26
0.00 0.00 0.00 0.00 0.00 0.00 0.00 0.00 0.00 0.00 0.00 0.00 0.00 0.00 0.00 0.00 0.00 0.00 0.00 0.00 0.00 0.00 0.00 0.00 0.00 0.00 0.00 0.00 0.00 0.00 0.00 0.00 0.00 0.00 0.00 0.00 0.00 0.00 0.00 0.00 0.00 0.00 0.01 0.03
0.00 0.00 0.00 0.00 0.00 0.00 0.00 0.00 0.00 0.00 0.00 0.00 0.00 0.00 0.00 0.00 0.00 0.00 0.00 0.00 0.00 0.00 0.00 0.00 0.00 0.00 0.00 0.00 0.00 0.00 0.00 0.00 0.00 0.00 0.00 0.00 0.00 0.00 0.00 0.00 0.00 0.01 0.01 0.03
0.00 0.00 0.00 0.00 0.00 0.00 0.00 0.00 0.00 0.00 0.02 0.02 0.00 0.00 0.00 0.00 0.00 0.00 0.00 0.00 0.00 0.00 0.00 0.00 0.00 0.00 0.00 0.00 0.00 0.00 0.00 0.00 0.00 0.00 0.00 0.00 0.00 0.00 0.00 0.00 0.00 0.00 0.02 0.03
0.00 0.01 0.00 0.00 0.00 0.00 0.00 0.01 0.02 0.05 0.08 0.02 0.00 0.00 0.00 0.00 0.00 0.00 0.00 0.00 0.00 0.00 0.00 0.00 0.00 0.00 0.00 0.00 0.00 0.00 0.00 0.00 0.00 0.00 0.00 0.00 0.00 0.00 0.00 0.00 0.00 0.00 0.01 0.03
0.00 0.00 0.00 0.00 0.00 0.00 0.00 0.02 0.02 0.04 0.02 0.01 0.00 0.00 0.00 0.00 0.00 0.00 0.00 0.00 0.00 0.00 0.00 0.00 0.00 0.00 0.00 0.00 0.00 0.00 0.00 0.00 0.00 0.00 0.00 0.00 0.00 0.00 0.00 0.00 0.00 0.00 0.00 0.00
0.00 0.00 0.00 0.00 0.00 0.00 0.00 0.02 0.03 0.18 0.09 0.05 0.00 0.00 0.00 0.00 0.00 0.00 0.00 0.00 0.00 0.00 0.00 0.00 0.00 0.00 0.00 0.00 0.00 0.00 0.00 0.00 0.00 0.00 0.00 0.00 0.00 0.00 0.00 0.00 0.00 0.00 0.00 0.00
0.00 0.00 0.00 0.00 0.00 0.00 0.00 0.04 0.15 0.19 0.12 0.04 0.00 0.00 0.01 0.01 0.01 0.00 0.00 0.00 0.00 0.00 0.00 0.00 0.00 0.00 0.00 0.00 0.00 0.00 0.00 0.00 0.00 0.00 0.00 0.00 0.00 0.00 0.00 0.00 0.00 0.00 0.00 0.00
0.00 0.00 0.01 0.00 0.00 0.00 0.00 0.02 0.07 0.17 0.14 0.12 0.05 0.07 0.15 0.04 0.04 0.02 0.00 0.00 0.00 0.00 0.00 0.00 0.00 0.00 0.00 0.00 0.00 0.00 0.01 0.00 0.00 0.01 0.01 0.00 0.00 0.00 0.00 0.00 0.00 0.00 0.00 0.00
0.00 0.01 0.01 0.00 0.00 0.00 0.00 0.01 0.06 0.22 0.12 0.08 0.07 0.03 0.11 0.07 0.02 0.01 0.00 0.00 0.01 0.02 0.04 0.02 0.01 0.00 0.00 0.00 0.01 0.01 0.01 0.01 0.02 0.04 0.03 0.01 0.00 0.00 0.00 0.00 0.00 0.00 0.00 0.00
0.01 0.01 0.02 0.06 0.04 0.01 0.02 0.05 0.12 0.19 0.18 0.14 0.10 0.02 0.07 0.24 0.14 0.03 0.01 0.00 0.02 0.07 0.11 0.07 0.02 0.02 0.01 0.01 0.01 0.03 0.05 0.06 0.05 0.06 0.01 0.00 0.00 0.00 0.00 0.00 0.00 0.00 0.00 0.00
0.00 0.00 0.01 0.02 0.03 0.01 0.02 0.04 0.04 0.14 0.19 0.08 0.05 0.00 0.01 0.19 0.34 0.22 0.08 0.06 0.09 0.17 0.23 0.19 0.09 0.08 0.10 0.13 0.13 0.11 0.10 0.09 0.09 0.14 0.16 0.05 0.01 0.00 0.00 0.00 0.00 0.00 0.00 0.00
0.01 0.00 0.00 0.00 0.00 0.00 0.00 0.00 0.02 0.08 0.09 0.15 0.02 0.00 0.00 0.03 0.30 0.44 0.29 0.21 0.29 0.59 0.43 0.31 0.26 0.21 0.19 0.18 0.21 0.24 0.24 0.25 0.27 0.35 0.23 0.13 0.04 0.02 0.00 0.00 0.00 0.00 0.00 0.00
0.01 0.00 0.00 0.00 0.00 0.00 0.00 0.00 0.00 0.00 0.02 0.04 0.01 0.01 0.00 0.04 0.15 0.36 0.38 0.38 0.30 0.45 0.70 0.41 0.21 0.15 0.13 0.14 0.15 0.13 0.13 0.17 0.15 0.12 0.17 0.16 0.13 0.08 0.04 0.03 0.02 0.01 0.00 0.00
0.00 0.00 0.00 0.00 0.00 0.00 0.00 0.00 0.00 0.00 0.01 0.01 0.02 0.01 0.01 0.09 0.20 0.30 0.42 0.45 0.36 0.41 0.53 0.33 0.15 0.09 0.09 0.11 0.14 0.14 0.13 0.11 0.10 0.07 0.08 0.09 0.12 0.13 0.14 0.11 0.06 0.08 0.06 0.03
0.00 0.00 0.00 0.00 0.00 0.00 0.00 0.00 0.00 0.04 0.13 0.05 0.04 0.03 0.03 0.18 0.27 0.29 0.34 0.62 0.53 0.54 0.69 0.63 0.31 0.10 0.08 0.05 0.07 0.19 0.26 0.18 0.10 0.06 0.05 0.06 0.05 0.05 0.08 0.11 0.12 0.14 0.10 0.07
0.00 0.00 0.00 0.00 0.00 0.00 0.00 0.00 0.00 0.02 0.04 0.02 0.09 0.29 0.24 0.33 0.53 0.69 0.90 0.96 0.91 0.66 0.48 0.52 0.54 0.33 0.14 0.10 0.05 0.05 0.16 0.25 0.15 0.11 0.09 0.11 0.11 0.06 0.04 0.04 0.05 0.08 0.09 0.09
0.00 0.00 0.00 0.00 0.00 0.00 0.00 0.00 0.00 0.00 0.02 0.01 0.10 0.55 0.52 0.49 0.40 0.47 0.68 1.09 0.86 0.55 0.29 0.22 0.21 0.22 0.22 0.13 0.05 0.03 0.02 0.06 0.13 0.11 0.07 0.05 0.06 0.04 0.01 0.01 0.03 0.06 0.04 0.05
0.00 0.00 0.00 0.00 0.02 0.00 0.00 0.00 0.00 0.01 0.00 0.00 0.02 0.19 0.62 0.80 0.89 0.84 0.84 0.88 0.64 0.43 0.15 0.03 0.01 0.01 0.02 0.06 0.09 0.05 0.02 0.01 0.01 0.02 0.03 0.01 0.01 0.00 0.00 0.00 0.00 0.01 0.02 0.04
0.01 0.01 0.01 0.01 0.02 0.02 0.00 0.00 0.01 0.01 0.01 0.01 0.02 0.03 0.11 0.35 0.41 0.37 0.59 0.56 0.40 0.16 0.01 0.00 0.00 0.00 0.00 0.00 0.00 0.01 0.03 0.02 0.01 0.01 0.00 0.00 0.00 0.00 0.00 0.00 0.00 0.00 0.00 0.03
0.07 0.05 0.04 0.04 0.08 0.10 0.02 0.01 0.01 0.01 0.04 0.05 0.05 0.09 0.17 0.25 0.28 0.36 0.30 0.12 0.04 0.02 0.01 0.00 0.00 0.00 0.00 0.00 0.00 0.00 0.00 0.00 0.01 0.01 0.01 0.00 0.00 0.00 0.00 0.00 0.00 0.00 0.00 0.01
0.15 0.25 0.24 0.26 0.35 0.16 0.08 0.08 0.05 0.05 0.15 0.18 0.12 0.07 0.08 0.07 0.09 0.13 0.11 0.05 0.02 0.01 0.00 0.00 0.00 0.00 0.00 0.00 0.00 0.00 0.00 0.00 0.00 0.00 0.00 0.00 0.00 0.00 0.00 0.00 0.00 0.00 0.00 0.00
0.11 0.23 0.46 0.58 0.40 0.26 0.16 0.17 0.24 0.28 0.15 0.13 0.16 0.13 0.10 0.07 0.06 0.06 0.05 0.03 0.01 0.00 0.00 0.00 0.00 0.00 0.00 0.00 0.00 0.00 0.00 0.00 0.00 0.00 0.00 0.00 0.00 0.00 0.00 0.01 0.02 0.02 0.03 0.01
0.09 0.15 0.23 0.47 0.50 0.37 0.31 0.28 0.21 0.19 0.23 0.13 0.05 0.02 0.01 0.00 0.00 0.00 0.00 0.00 0.00 0.00 0.00 0.00 0.00 0.00 0.00 0.00 0.00 0.00 0.00 0.00 0.00 0.00 0.00 0.00 0.00 0.00 0.00 0.00 0.01 0.03 0.03 0.01

GFSCGP_prec_precacc12_105.txt.gz
Total_Precipitation_Accumulation
0.00 0.00 0.00 0.00 0.00 0.00 0.00 0.00 0.00 0.00 0.00 0.00 0.00 0.00 0.00 0.00 0.00 0.00 0.00 0.00 0.00 0.00 0.00 0.00 0.00 0.00 0.00 0.00 0.00 0.00 0.00 0.00 0.00 0.00 0.00 0.00 0.00 0.00 0.00 0.01 0.02 0.09 0.07 0.09
0.00 0.00 0.00 0.00 0.00 0.00 0.00 0.00 0.00 0.00 0.00 0.00 0.00 0.00 0.00 0.00 0.00 0.00 0.00 0.00 0.00 0.00 0.00 0.00 0.00 0.00 0.00 0.00 0.00 0.00 0.00 0.00 0.00 0.00 0.00 0.00 0.00 0.00 0.00 0.00 0.01 0.04 0.17 0.21
0.00 0.00 0.00 0.00 0.00 0.00 0.00 0.00 0.00 0.00 0.00 0.00 0.00 0.00 0.00 0.00 0.00 0.00 0.00 0.00 0.00 0.00 0.00 0.00 0.00 0.00 0.00 0.00 0.00 0.00 0.00 0.00 0.00 0.00 0.00 0.00 0.00 0.01 0.01 0.01 0.00 0.01 0.04 0.24
0.00 0.00 0.00 0.00 0.00 0.00 0.00 0.00 0.00 0.00 0.00 0.00 0.00 0.00 0.00 0.00 0.00 0.00 0.00 0.00 0.00 0.00 0.00 0.00 0.00 0.00 0.00 0.00 0.00 0.00 0.00 0.00 0.00 0.00 0.00 0.00 0.00 0.00 0.00 0.00 0.00 0.00 0.01 0.03
0.00 0.00 0.00 0.00 0.00 0.00 0.00 0.00 0.00 0.00 0.00 0.00 0.00 0.00 0.00 0.00 0.00 0.00 0.00 0.00 0.00 0.00 0.00 0.00 0.00 0.00 0.00 0.00 0.00 0.00 0.00 0.00 0.00 0.00 0.00 0.00 0.00 0.00 0.00 0.00 0.00 0.00 0.01 0.01
0.00 0.00 0.00 0.00 0.00 0.00 0.00 0.00 0.00 0.00 0.00 0.00 0.00 0.00 0.00 0.00 0.00 0.00 0.00 0.00 0.00 0.00 0.00 0.00 0.00 0.00 0.00 0.00 0.00 0.00 0.00 0.00 0.00 0.00 0.00 0.00 0.00 0.00 0.00 0.00 0.00 0.00 0.01 0.01
0.05 0.03 0.00 0.00 0.00 0.00 0.00 0.00 0.00 0.01 0.01 0.00 0.00 0.00 0.00 0.00 0.00 0.00 0.00 0.00 0.00 0.00 0.00 0.00 0.00 0.00 0.00 0.00 0.00 0.00 0.00 0.00 0.00 0.00 0.00 0.00 0.00 0.00 0.00 0.00 0.00 0.00 0.01 0.02
0.03 0.08 0.03 0.00 0.00 0.00 0.00 0.00 0.00 0.02 0.02 0.00 0.00 0.00 0.00 0.00 0.00 0.00 0.00 0.00 0.00 0.00 0.00 0.00 0.00 0.00 0.00 0.00 0.00 0.00 0.00 0.00 0.00 0.00 0.00 0.00 0.00 0.00 0.00 0.00 0.00 0.00 0.00 0.00
0.02 0.03 0.02 0.00 0.00 0.00 0.01 0.00 0.01 0.06 0.04 0.04 0.00 0.00 0.00 0.00 0.00 0.00 0.00 0.00 0.00 0.00 0.00 0.00 0.00 0.00 0.00 0.00 0.00 0.00 0.00 0.00 0.00 0.00 0.00 0.00 0.00 0.00 0.00 0.00 0.00 0.00 0.00 0.00
0.01 0.02 0.02 0.01 0.01 0.01 0.00 0.01 0.08 0.09 0.06 0.02 0.00 0.00 0.04 0.02 0.01 0.00 0.00 0.00 0.00 0.00 0.00 0.00 0.00 0.00 0.00 0.00 0.00 0.00 0.00 0.00 0.00 0.01 0.00 0.00 0.00 0.00 0.00 0.00 0.00 0.00 0.00 0.00
0.00 0.01 0.04 0.02 0.01 0.00 0.00 0.02 0.03 0.09 0.09 0.12 0.04 0.10 0.15 0.04 0.04 0.02 0.00 0.00 0.00 0.00 0.00 0.00 0.00 0.00 0.00 0.00 0.00 0.00 0.01 0.00 0.00 0.01 0.01 0.00 0.00 0.00 0.00 0.00 0.00 0.00 0.00 0.00
0.00 0.03 0.05 0.03 0.00 0.00 0.00 0.00 0.02 0.09 0.06 0.06 0.07 0.06 0.03 0.04 0.01 0.01 0.00 0.00 0.01 0.02 0.04 0.02 0.01 0.01 0.01 0.00 0.01 0.01 0.01 0.01 0.02 0.04 0.03 0.01 0.00 0.00 0.00 0.00 0.00 0.00 0.00 0.00
0.02 0.05 0.09 0.15 0.08 0.03 0.01 0.00 0.05 0.12 0.05 0.03 0.07 0.05 0.01 0.02 0.05 0.02 0.01 0.00 0.02 0.07 0.11 0.07 0.04 0.03 0.03 0.03 0.03 0.04 0.05 0.06 0.05 0.05 0.01 0.00 0.01 0.02 0.04 0.01 0.00 0.00 0.00 0.00
0.01 0.04 0.05 0.04 0.03 0.01 0.02 0.01 0.01 0.04 0.08 0.06 0.03 0.01 0.00 0.00 0.04 0.09 0.07 0.06 0.09 0.16 0.21 0.18 0.10 0.09 0.09 0.09 0.11 0.10 0.09 0.08 0.07 0.12 0.18 0.14 0.09 0.06 0.03 0.00 0.00 0.00 0.00 0.00
0.01 0.02 0.02 0.02 0.01 0.01 0.02 0.01 0.01 0.02 0.01 0.06 0.01 0.01 0.00 0.01 0.01 0.06 0.11 0.19 0.29 0.59 0.43 0.35 0.32 0.27 0.21 0.18 0.19 0.22 0.22 0.21 0.23 0.34 0.31 0.19 0.12 0.07 0.02 0.00 0.00 0.00 0.00 0.00
0.02 0.00 0.00 0.00 0.00 0.00 0.00 0.00 0.00 0.00 0.00 0.00 0.00 0.02 0.01 0.02 0.03 0.06 0.15 0.29 0.28 0.45 0.71 0.58 0.47 0.34 0.24 0.21 0.21 0.18 0.19 0.23 0.22 0.18 0.15 0.12 0.09 0.07 0.03 0.01 0.00 0.00 0.00 0.00
0.02 0.00 0.00 0.00 0.00 0.00 0.00 0.00 0.00 0.00 0.00 0.01 0.03 0.04 0.01 0.05 0.08 0.13 0.20 0.36 0.33 0.42 0.58 0.69 0.72 0.52 0.28 0.23 0.24 0.22 0.21 0.18 0.19 0.17 0.15 0.11 0.11 0.09 0.09 0.06 0.03 0.02 0.01 0.01
0.00 0.00 0.00 0.00 0.00 0.00 0.00 0.00 0.00 0.00 0.00 0.03 0.04 0.03 0.08 0.08 0.22 0.29 0.33 0.61 0.47 0.54 0.75 0.81 0.79 0.58 0.45 0.28 0.23 0.36 0.40 0.34 0.24 0.19 0.16 0.11 0.07 0.06 0.06 0.07 0.07 0.09 0.04 0.02
0.00 0.00 0.00 0.00 0.00 0.00 0.02 0.00 0.00 0.00 0.01 0.01 0.06 0.20 0.33 0.36 0.48 0.63 0.88 1.03 1.01 0.76 0.56 0.64 0.81 0.87 0.53 0.46 0.27 0.20 0.34 0.48 0.49 0.36 0.29 0.23 0.14 0.07 0.06 0.08 0.08 0.09 0.10 0.08
0.00 0.00 0.00 0.00 0.00 0.01 0.02 0.00 0.00 0.00 0.02 0.00 0.07 0.31 0.47 0.56 0.43 0.48 0.68 1.09 0.97 0.66 0.37 0.29 0.26 0.38 0.66 0.51 0.32 0.26 0.21 0.21 0.34 0.46 0.26 0.18 0.18 0.20 0.17 0.16 0.16 0.17 0.19 0.16
0.00 0.00 0.00 0.00 0.01 0.01 0.00 0.00 0.00 0.03 0.03 0.01 0.02 0.12 0.43 0.74 0.86 0.84 0.88 0.96 0.75 0.55 0.19 0.06 0.03 0.02 0.05 0.25 0.37 0.26 0.19 0.21 0.22 0.20 0.19 0.09 0.07 0.10 0.12 0.13 0.16 0.17 0.16 0.16
0.02 0.03 0.02 0.02 0.02 0.03 0.00 0.00 0.01 0.02 0.02 0.02 0.02 0.03 0.08 0.34 0.41 0.38 0.63 0.61 0.46 0.28 0.05 0.00 0.00 0.00 0.00 0.00 0.03 0.12 0.14 0.14 0.16 0.14 0.08 0.07 0.07 0.04 0.03 0.02 0.02 0.02 0.02 0.02
0.09 0.06 0.04 0.04 0.09 0.12 0.03 0.02 0.02 0.01 0.04 0.06 0.06 0.10 0.18 0.26 0.29 0.36 0.32 0.15 0.06 0.03 0.02 0.00 0.00 0.00 0.00 0.00 0.00 0.00 0.01 0.03 0.03 0.03 0.05 0.05 0.03 0.02 0.01 0.02 0.01 0.00 0.00 0.00
0.01 0.00 0.10 0.25 0.33 0.16 0.08 0.08 0.04 0.05 0.08 0.11 0.11 0.07 0.08 0.07 0.09 0.13 0.11 0.05 0.02 0.01 0.00 0.00 0.00 0.00 0.00 0.00 0.00 0.00 0.00 0.00 0.00 0.00 0.01 0.01 0.02 0.02 0.02 0.01 0.00 0.00 0.00 0.00
0.01 0.02 0.14 0.34 0.29 0.22 0.13 0.15 0.14 0.13 0.11 0.06 0.11 0.11 0.09 0.07 0.06 0.06 0.05 0.03 0.01 0.00 0.00 0.00 0.00 0.00 0.00 0.00 0.00 0.00 0.00 0.00 0.00 0.00 0.00 0.00 0.00 0.00 0.01 0.01 0.02 0.02 0.03 0.01
0.02 0.04 0.07 0.19 0.26 0.27 0.23 0.22 0.18 0.13 0.19 0.13 0.05 0.02 0.00 0.00 0.00 0.00 0.00 0.00 0.00 0.00 0.00 0.00 0.00 0.00 0.00 0.00 0.00 0.00 0.00 0.00 0.00 0.00 0.00 0.01 0.00 0.00 0.00 0.00 0.01 0.03 0.03 0.01

GFSCGP_prec_precacc12_108.txt.gz
Total_Precipitation_Accumulation
0.00 0.00 0.00 0.00 0.00 0.00 0.00 0.00 0.00 0.00 0.00 0.00 0.00 0.00 0.00 0.00 0.00 0.00 0.00 0.00 0.00 0.00 0.00 0.00 0.00 0.00 0.00 0.00 0.00 0.00 0.00 0.00 0.00 0.00 0.00 0.00 0.00 0.00 0.00 0.01 0.01 0.02 0.03 0.06
0.00 0.00 0.00 0.00 0.00 0.00 0.00 0.00 0.00 0.00 0.00 0.00 0.00 0.00 0.00 0.00 0.00 0.00 0.00 0.00 0.00 0.00 0.00 0.00 0.00 0.00 0.00 0.00 0.00 0.00 0.00 0.00 0.00 0.00 0.00 0.00 0.00 0.00 0.00 0.00 0.01 0.04 0.06 0.09
0.00 0.00 0.00 0.00 0.00 0.00 0.00 0.00 0.00 0.00 0.00 0.00 0.00 0.00 0.00 0.00 0.00 0.00 0.00 0.00 0.00 0.00 0.00 0.00 0.00 0.00 0.00 0.00 0.00 0.00 0.00 0.00 0.00 0.00 0.00 0.00 0.00 0.01 0.01 0.01 0.00 0.01 0.04 0.14
0.00 0.00 0.00 0.00 0.00 0.00 0.00 0.00 0.00 0.00 0.00 0.00 0.00 0.00 0.00 0.00 0.00 0.00 0.00 0.00 0.00 0.00 0.00 0.00 0.00 0.00 0.00 0.00 0.00 0.00 0.00 0.00 0.00 0.00 0.00 0.00 0.00 0.00 0.00 0.00 0.00 0.00 0.01 0.03
0.01 0.00 0.00 0.00 0.00 0.00 0.00 0.00 0.00 0.00 0.00 0.00 0.00 0.00 0.00 0.00 0.00 0.00 0.00 0.00 0.00 0.00 0.00 0.00 0.00 0.00 0.00 0.00 0.00 0.00 0.00 0.00 0.00 0.00 0.00 0.00 0.00 0.00 0.00 0.00 0.00 0.00 0.01 0.01
0.01 0.00 0.00 0.00 0.00 0.00 0.00 0.00 0.00 0.00 0.00 0.00 0.00 0.00 0.00 0.00 0.00 0.00 0.00 0.00 0.00 0.00 0.00 0.00 0.00 0.00 0.00 0.00 0.00 0.00 0.00 0.00 0.00 0.00 0.00 0.00 0.00 0.00 0.00 0.00 0.00 0.00 0.01 0.01
0.08 0.09 0.01 0.00 0.00 0.00 0.00 0.00 0.02 0.03 0.01 0.00 0.00 0.00 0.00 0.00 0.00 0.00 0.00 0.00 0.00 0.00 0.00 0.00 0.00 0.00 0.00 0.00 0.00 0.00 0.00 0.00 0.00 0.00 0.00 0.00 0.00 0.00 0.00 0.00 0.00 0.00 0.01 0.02
0.12 0.16 0.07 0.00 0.00 0.00 0.00 0.00 0.03 0.03 0.01 0.00 0.00 0.00 0.00 0.00 0.00 0.00 0.00 0.00 0.00 0.00 0.00 0.00 0.00 0.00 0.00 0.00 0.00 0.00 0.00 0.00 0.00 0.00 0.00 0.00 0.00 0.00 0.00 0.00 0.00 0.00 0.00 0.00
0.16 0.14 0.05 0.00 0.00 0.00 0.02 0.01 0.00 0.04 0.03 0.05 0.02 0.02 0.02 0.00 0.00 0.00 0.00 0.00 0.00 0.00 0.00 0.00 0.00 0.00 0.00 0.00 0.00 0.00 0.00 0.00 0.00 0.00 0.00 0.00 0.00 0.00 0.00 0.00 0.00 0.00 0.00 0.00
0.10 0.14 0.08 0.02 0.02 0.02 0.04 0.01 0.03 0.04 0.11 0.07 0.01 0.04 0.16 0.12 0.03 0.00 0.00 0.00 0.00 0.00 0.00 0.00 0.00 0.00 0.00 0.00 0.00 0.00 0.00 0.00 0.00 0.01 0.00 0.00 0.00 0.00 0.00 0.00 0.00 0.00 0.00 0.00
0.15 0.12 0.07 0.05 0.03 0.03 0.12 0.07 0.05 0.04 0.03 0.08 0.06 0.22 0.19 0.09 0.07 0.03 0.00 0.00 0.00 0.00 0.00 0.00 0.00 0.00 0.00 0.00 0.01 0.02 0.01 0.00 0.00 0.01 0.03 0.01 0.00 0.00 0.00 0.00 0.00 0.00 0.00 0.00
0.02 0.09 0.08 0.06 0.01 0.00 0.02 0.03 0.02 0.05 0.05 0.03 0.10 0.40 0.11 0.06 0.03 0.01 0.00 0.00 0.01 0.02 0.04 0.02 0.01 0.01 0.01 0.01 0.05 0.06 0.03 0.02 0.01 0.05 0.06 0.01 0.01 0.01 0.01 0.01 0.00 0.00 0.00 0.00
0.03 0.09 0.14 0.22 0.15 0.05 0.04 0.01 0.02 0.11 0.07 0.02 0.04 0.18 0.10 0.01 0.00 0.00 0.01 0.00 0.02 0.07 0.11 0.07 0.04 0.03 0.04 0.04 0.06 0.06 0.06 0.03 0.03 0.05 0.03 0.01 0.02 0.06 0.06 0.05 0.01 0.01 0.00 0.00
0.02 0.06 0.09 0.18 0.06 0.03 0.06 0.07 0.03 0.03 0.06 0.04 0.04 0.11 0.08 0.00 0.00 0.00 0.02 0.04 0.08 0.15 0.17 0.16 0.09 0.09 0.10 0.10 0.10 0.11 0.09 0.07 0.06 0.10 0.14 0.14 0.11 0.09 0.08 0.08 0.00 0.02 0.00 0.00
0.05 0.13 0.16 0.11 0.03 0.02 0.08 0.07 0.04 0.04 0.03 0.03 0.03 0.04 0.01 0.00 0.01 0.01 0.03 0.05 0.26 0.59 0.41 0.31 0.25 0.19 0.17 0.15 0.17 0.20 0.21 0.20 0.22 0.33 0.34 0.21 0.14 0.10 0.08 0.06 0.03 0.02 0.00 0.00
0.03 0.03 0.02 0.16 0.08 0.02 0.04 0.01 0.00 0.00 0.01 0.02 0.06 0.12 0.01 0.00 0.03 0.05 0.09 0.12 0.15 0.43 0.70 0.58 0.47 0.34 0.30 0.28 0.27 0.25 0.26 0.30 0.28 0.25 0.21 0.19 0.16 0.11 0.09 0.05 0.03 0.01 0.00 0.00
0.02 0.00 0.00 0.00 0.00 0.00 0.00 0.00 0.00 0.01 0.01 0.01 0.03 0.06 0.02 0.02 0.06 0.11 0.14 0.24 0.22 0.35 0.57 0.69 0.75 0.66 0.56 0.51 0.45 0.34 0.31 0.27 0.26 0.23 0.22 0.19 0.18 0.15 0.13 0.09 0.04 0.02 0.01 0.01
0.01 0.01 0.00 0.00 0.00 0.04 0.03 0.00 0.00 0.01 0.00 0.01 0.03 0.03 0.09 0.09 0.21 0.24 0.24 0.43 0.37 0.45 0.67 0.76 0.84 0.76 0.78 0.68 0.58 0.58 0.52 0.45 0.33 0.29 0.26 0.20 0.16 0.15 0.13 0.10 0.09 0.10 0.04 0.03
0.00 0.00 0.00 0.00 0.00 0.02 0.04 0.00 0.00 0.03 0.03 0.01 0.05 0.16 0.29 0.36 0.31 0.41 0.60 0.81 0.83 0.67 0.52 0.62 0.82 0.94 0.71 0.72 0.54 0.53 0.50 0.64 0.64 0.53 0.47 0.43 0.32 0.24 0.19 0.15 0.10 0.10 0.11 0.08
0.00 0.00 0.00 0.00 0.00 0.07 0.10 0.00 0.00 0.00 0.05 0.01 0.05 0.23 0.19 0.38 0.37 0.42 0.54 0.84 0.74 0.56 0.30 0.23 0.24 0.39 0.73 0.71 0.55 0.53 0.54 0.45 0.54 0.69 0.57 0.68 0.65 0.55 0.50 0.45 0.35 0.29 0.30 0.30
0.00 0.00 0.01 0.01 0.03 0.02 0.00 0.00 0.00 0.06 0.11 0.02 0.01 0.08 0.11 0.30 0.44 0.60 0.72 0.85 0.76 0.49 0.12 0.04 0.03 0.02 0.05 0.29 0.48 0.42 0.41 0.50 0.46 0.44 0.61 0.53 0.52 0.55 0.51 0.57 0.49 0.44 0.49 0.50
0.02 0.08 0.03 0.03 0.04 0.05 0.00 0.00 0.02 0.05 0.04 0.03 0.02 0.01 0.03 0.15 0.26 0.30 0.55 0.59 0.45 0.28 0.06 0.00 0.00 0.00 0.00 0.00 0.04 0.17 0.24 0.26 0.30 0.33 0.30 0.36 0.38 0.34 0.33 0.28 0.24 0.20 0.20 0.20
0.09 0.06 0.03 0.04 0.10 0.13 0.04 0.03 0.03 0.02 0.05 0.06 0.04 0.06 0.16 0.19 0.16 0.28 0.31 0.16 0.06 0.03 0.02 0.00 0.00 0.00 0.00 0.00 0.00 0.00 0.03 0.07 0.10 0.12 0.15 0.18 0.19 0.25 0.23 0.16 0.11 0.07 0.04 0.03
0.01 0.00 0.02 0.10 0.24 0.14 0.07 0.07 0.04 0.05 0.06 0.07 0.06 0.05 0.07 0.07 0.09 0.13 0.11 0.05 0.02 0.01 0.00 0.00 0.00 0.00 0.00 0.00 0.00 0.00 0.00 0.00 0.01 0.02 0.04 0.04 0.06 0.07 0.09 0.11 0.13 0.11 0.08 0.04
0.01 0.00 0.03 0.12 0.13 0.14 0.08 0.09 0.10 0.09 0.07 0.04 0.03 0.02 0.03 0.04 0.04 0.04 0.04 0.03 0.01 0.00 0.00 0.00 0.00 0.00 0.00 0.00 0.00 0.00 0.00 0.00 0.00 0.00 0.00 0.00 0.00 0.01 0.02 0.03 0.04 0.05 0.08 0.06
0.00 0.01 0.02 0.10 0.10 0.13 0.12 0.10 0.07 0.06 0.07 0.05 0.03 0.02 0.00 0.00 0.00 0.00 0.00 0.00 0.00 0.00 0.00 0.00 0.00 0.00 0.00 0.00 0.00 0.00 0.00 0.00 0.00 0.00 0.01 0.01 0.01 0.00 0.00 0.00 0.01 0.02 0.03 0.01